Погода в Нагибове

Россия / Еврейская автономная область     47°44′37″N   131°32′03″E
темп.,
°C
ветер,
м/с
пор.,
м/с
влажн.,
%
обл.,
%
осадки,
мм/ч
давл.,
гПа
погр.,
м
4 марта, чт
чт401:00−11св3496100 0.0 101566
04:00−10св4695100 0.9 1012146
07:00−11ссв339699 0.9 101283
10:00−10ссв2294100 0.9 101278
13:00−6юв1191100 0.1 1011228
16:00−3ссв1196100 2.1 100985
19:00−3ссз0199100 1.1 100883
22:00−2зюз2497100 1.1 1008112
5 марта, пт
пт501:00−4зюз489396 0.0 1009140
04:00−11сз9168298 0.0 1011406
07:00−15сз9177953 0.0 1015529
10:00−18сз11187360 0.0 1020591
13:00−17сз915690 0.0 1023760
16:00−16сз814650 0.0 10251255
19:00−19сз514770 0.0 1029592
22:00−21зсз514800 0.0 1031612
6 марта, сб
сб601:00−21зсз513790 0.0 1032390
04:00−21з410820 0.0 1033197
07:00−21з49842 0.0 1034172
10:00−17зсз512771 0.0 1034801
13:00−11зсз59650 0.0 10331045
16:00−9зюз58640 0.0 10311375
19:00−11з512690 0.0 1030210
22:00−16з48790 0.0 1031122
7 марта, вс
вс701:00−18зюз34840 0.0 103144
04:00−17юз348625 0.0 102970
07:00−17юз3589100 0.0 1028123
10:00−15юз3590100 0.1 1027222
13:00−12юз347992 0.0 1025329
16:00−10юз247880 0.0 1024391
19:00−12зюз238617 0.0 102421
22:00−13з348819 0.0 102651
8 марта, пн
пн801:00−14зсз34870 0.0 102733
04:00−15з33900 0.0 102729
07:00−15зюз34870 0.0 102744
10:00−12зюз35860 0.0 1027159
13:00−8юз46853 0.0 1025341
16:00−4ююз478336 0.0 1022500
19:00−6ююз348967 0.0 102064
22:00−6зюз349068 0.0 102080